{"data":{"norad_id":59439,"intl_designator":"2024-065U","name":"STARLINK-31708","alt_names":[],"object_type":"PAYLOAD","status":"ACTIVE","operator":null,"country":"US","launch_date":"2024-04-07","launch_site_code":"AFWTR","launch_vehicle":null,"mission":null,"orbit_class":"UNKNOWN","rcs_meters":null,"size_class":null,"mass_kg":null,"dimensions":null,"purposes":["comms"],"wikipedia_slug":null,"has_3d_model":false,"image_url":null,"decayed_at":null,"tle_current":{"epoch":"2026-05-25T02:42:23.969952Z","epoch_age_seconds":66139,"freshness":"FRESH","line1":"1 59439U 24065U   26145.11277743  .00000731  00000+0  36812-4 0  9991","line2":"2 59439  53.1607 286.4424 0001086 102.6212 257.4910 15.30188220120633","mean_motion":15.3018822,"eccentricity":0.0001086,"inclination_deg":53.1607,"raan_deg":286.4424,"arg_perigee_deg":102.6212,"mean_anomaly_deg":257.491,"bstar":3.6812e-5,"rev_number":12063,"period_min":94.106070166976,"perigee_km":474.50596474707,"apogee_km":475.99452045616,"semimajor_km":6853.3872426016,"source":"CELESTRAK","updated_at":"2026-05-25T13:38:18.947537Z"}}}